Location: Dodgeville
(42.9600°N, 90.1300°W)
Time: 08:32:25
(UTC-05:00)

Uosat F - Visible Passes

Search period start: 21 October 2014 00:00
Search period end: 31 October 2014 00:00
Orbit: 752 x 761 km, 98.7° (Epoch: 20 October)

Date Brightness Start Highest point End Pass type
(mag) Time Alt. Az. Time Alt. Az. Time Alt. Az.
21 Oct 11.7 05:17:38 10° NNE 05:22:37 56° E 05:27:34 10° S visible
22 Oct 13.2 04:39:10 10° NE 04:43:15 24° E 04:47:18 10° SSE visible
22 Oct 11.4 06:17:26 10° N 06:22:11 42° WNW 06:26:54 10° SW visible
23 Oct 11.1 05:38:04 10° NNE 05:43:09 86° ESE 05:48:12 10° SSW visible
24 Oct 12.5 04:59:13 10° NNE 05:03:54 37° E 05:08:33 10° SSE visible
24 Oct 11.9 06:38:16 10° N 06:42:32 28° WNW 06:46:47 10° WSW visible
25 Oct 13.8 04:21:19 10° NE 04:24:25 16° E 04:27:29 10° SE visible
25 Oct 11.0 05:58:37 10° N 06:03:37 62° WNW 06:08:35 10° SSW visible
26 Oct 11.7 05:19:29 10° NNE 05:24:29 57° E 05:29:26 10° S visible
27 Oct 13.2 04:40:59 10° NE 04:45:07 25° E 04:49:13 10° SSE visible
27 Oct 11.5 06:19:18 10° N 06:24:01 41° WNW 06:28:43 10° SW visible
28 Oct 14.2 04:05:02 10° E 04:05:31 10° E 04:06:00 10° E visible
28 Oct 11.0 05:39:55 10° NNE 05:45:00 88° ESE 05:50:03 10° SSW visible
29 Oct 12.4 05:01:03 10° NNE 05:05:45 38° E 05:10:25 10° SSE visible
29 Oct 12.0 06:40:08 10° N 06:44:22 27° WNW 06:48:34 10° WSW visible
30 Oct 13.7 04:23:06 10° NE 04:26:16 17° E 04:29:25 10° SE visible
30 Oct 11.0 06:00:28 10° N 06:05:27 61° WNW 06:10:24 10° SSW visible
